Time,TemperatureF,DewpointF,PressureIn,WindDirection,WindDirectionDegrees,WindSpeedMPH,WindSpeedGustMPH,Humidity,HourlyPrecipIn,Conditions,Clouds,dailyrainin,SolarRadiationWatts/m^2,SoftwareType,DateUTC
2013-10-02 08:00:00,63.0,61.0,29.93,SSE,150,3.0,-999.0,95,0.00,,,-99.99,14.730000,,2013-10-02 13:00:00,
2013-10-02 08:52:00,63.0,61.0,29.93,SSE,150,3.0,-999.0,95,0.00,,,-99.99,14.730000,,2013-10-02 13:52:00,
2013-10-02 10:00:00,70.0,63.0,29.93,SSE,158,5.0,-999.0,79,0.00,,,-99.99,317.100006,,2013-10-02 15:00:00,
2013-10-02 10:54:00,70.0,63.0,29.93,SSE,158,5.0,-999.0,79,0.00,,,-99.99,317.100006,,2013-10-02 15:54:00,
2013-10-02 11:00:00,75.0,64.0,29.93,SSE,158,6.0,-999.0,70,0.00,,,-99.99,457.299988,,2013-10-02 16:00:00,
2013-10-02 11:53:00,75.0,64.0,29.93,SSE,158,6.0,-999.0,70,0.00,,,-99.99,457.299988,,2013-10-02 16:53:00,
2013-10-02 12:00:00,81.0,64.0,29.91,SSE,166,7.0,-999.0,57,0.00,,,-99.99,577.000000,,2013-10-02 17:00:00,
2013-10-02 12:52:00,81.0,64.0,29.91,SSE,166,7.0,-999.0,57,0.00,,,-99.99,577.000000,,2013-10-02 17:52:00,
2013-10-02 13:00:00,83.0,62.0,29.90,South,171,8.0,-999.0,48,0.00,,,-99.99,656.700012,,2013-10-02 18:00:00,
2013-10-02 13:52:00,83.0,62.0,29.90,South,171,8.0,-999.0,48,0.00,,,-99.99,656.700012,,2013-10-02 18:52:00,
2013-10-02 14:00:00,84.0,61.0,29.87,South,178,11.0,-999.0,45,0.00,,,-99.99,591.099976,,2013-10-02 19:00:00,
2013-10-02 14:52:00,84.0,61.0,29.87,South,178,11.0,-999.0,45,0.00,,,-99.99,591.099976,,2013-10-02 19:52:00,
2013-10-02 15:00:00,85.0,59.0,29.84,South,177,11.0,-999.0,42,0.00,,,-99.99,610.099976,,2013-10-02 20:00:00,
2013-10-02 15:52:00,85.0,59.0,29.84,South,177,11.0,-999.0,42,0.00,,,-99.99,610.099976,,2013-10-02 20:52:00,
2013-10-02 17:00:00,83.0,60.0,29.82,South,178,10.0,-999.0,46,0.00,,,-99.99,279.399994,,2013-10-02 22:00:00,
2013-10-02 17:54:00,83.0,60.0,29.82,South,178,10.0,-999.0,46,0.00,,,-99.99,279.399994,,2013-10-02 22:54:00,
2013-10-02 18:00:00,82.0,59.0,29.82,South,179,10.0,-999.0,46,0.00,,,-99.99,218.800003,,2013-10-02 23:00:00,
2013-10-02 18:52:00,82.0,59.0,29.82,South,179,10.0,-999.0,46,0.00,,,-99.99,218.800003,,2013-10-02 23:52:00,
2013-10-02 23:00:00,71.0,63.0,29.83,SSE,166,5.0,-999.0,75,0.00,,,-99.99,0.030000,,2013-10-03 04:00:00,
2013-10-02 23:53:00,71.0,63.0,29.83,SSE,166,5.0,-999.0,75,0.00,,,-99.99,0.030000,,2013-10-03 04:53:00,